Location: Abundant Grace Fellowship
(35.0349°N, 90.0924°W)
Time: 22:20:38
(UTC+00:00)

Okean 3 - Pass Details

Date: 18 January 2026
Orbit: 541 x 564 km, 82.5° (Epoch: 11 February)

Event Time Altitude Azimuth Distance (km) Brightness Sun altitude
Rises 00:06:38 0° 184° (S) 2,735 7.2 -10.9°
Reaches altitude 10° 00:08:48 10° 183° (S) 1,841 6.3 -11.3°
Maximum altitude 00:12:51 84° 95° (E) 566 3.3 -12.1°
Drops below altitude 10° 00:16:55 10° 8° (N) 1,841 5.8 -12.9°
Sets 00:19:05 0° 8° (N) 2,735 6.6 -13.3°
